STARLINK-35938, 66644

Orbit data source: Space-Track

STARLINK-35938, 66644 is a payload satellite owned by SpaceX/Seattle (US) in LEO that was launched on Sun, 23 Nov 2025 UTC via an FALCON 9 launch vehicle from the Air Force Western Test Range (AFWTR). Payload-class satellites include a variety of spacecraft equipped with specific instruments for various scientific and technological missions. These include communications satellites like Starlink; space stations such as the ISS; scientific satellites like the Hubble; Earth observation satellites from companies like Planet Labs, Umbra, and HawkEye 360; GPS; miniature CubeSats for education and research; and military/defense satellites.

Loading next visibility...
Identifier
66644, 2025-271AD
Orbit
LEO
Country
Flag of USUS
Related business
Manufacturer
SpaceX/Seattle
Mission
Operational spacecraft
Bus & Motor
STARLINK V2MO, Unknown motor
Mass
575 kg wet, ~530 kg dry
Launch date (UTC)
2025-11-23 (2 months ago)
Launch vehicle
FALCON 9
Launch site
Air Force Western Test Range (AFWTR)
Object type
Payload
Rocket body
Debris
Shape & HBR
Unknown shape, 17.7 m
Radar Cross Section
RCS unknown

Expand to show TLE details & history
Last TLE update: 6 hours ago

TLE from 6 hours ago
0 STARLINK-35938
1 66644U 25271AD  26037.08649595  .00039547  00000-0  13398-2 0  9991
2 66644  53.1609 287.0402 0000941 259.0732 101.0163 15.30211262 12724
Epoch: 2026-02-06T02:04Z
TLE epoch observation values (Epoch: 2026-02-06T02:04:33.250Z)
Latitude
Longitude
119.67224°
Altitude
476.205 km
Speed
7.629 km/s
True Right ascension
19h 08m 09s
True Declination
0° 00' 00"
Sunlit
Object was in daylight at epoch
Visualization orbit readout
Latitude
Unknown
Longitude
Unknown
Altitude
Unknown
Speed
Unknown
Apparent Right ascension
Unknown
Apparent Declination
Unknown
Sunlit
N/A
Visualization observer readout
Local Sidereal Time
10:37:06
Azimuth
Unknown
Elevation
Unknown
Doppler factor
Unknown
Orbital elements
Apogee altitude
476.083 km
Perigee altitude
474.793 km
Semi-major axis
6,853.575 km
Eccentricity
0.00009
Inclination
53.1609°
RAAN
287.0402°
Arg. of periapsis
259.0732°
True anomaly
101.02688°
Mean anomaly
101.0163°
Eccentric anomaly
101.02159°
Mean motion
3.82532 °/min
Orbital period
94.11 mins
BSTAR
0.0013398
Loading maneuver chart data...
Computing Atmospheric mass density...
Loading historical data...
Loading historical data...
Loading historical data...
Loading historical data...
Loading historical data...
Loading historical data...
Loading historical data...

Documentation

Showing up to 5 results
|